Content
SEND FEEDBACK

Daily
Averages
Monthly
Summary
United States of America

LAUGHLIN, NEVADA


Home > North America > United States > Nevada
Elevation: 1018 feet     Latitude: 35 10N     Longitude: 114 37W

WEATHER
 
SELECT A DAY
Number of Records: 188,816;   Date Range: 7/1/96 - 10/19/14
 
SHARE

PRINT THIS DATA

[ ← Previous Day ]
WEATHER ALMANAC - FEBRUARY 10, 2013
[ Next Day → ]
[ °C ]   °F
Weather ElementAverageHighLow
Temperature47.1 °F59 °F (4:15 pm)37.4 °F (4:55 am)
Dewpoint24.5 °F28.4 °F (3:35 am)14 °F (4:15 pm)
Humidity44.1 %65 % (4:35 am)17 % (4:15 pm)
Barometer30.00 in30.05 in (10:55 am)29.94 in (4:15 pm)
Wind Speed3.2 mph15 mph (7:55 pm)
Wind Gust19.6 mph (7:55 pm)
Weather ElementAverage
Visibility10 mi
Wind DirectionESE (103.7 °)

Weather ElementTotal
Precipitation---
Heating Degree Days16.8 (Base 65)
Averaged from 71 records on February 10, 2013
WEATHER CONDITIONS BREAKOUT
WIND DIRECTION BREAKOUT
WEATHER BY HOUR - FEBRUARY 10, 2013
[ °C ]   °F
Local TimeTemperatureDewpointHumidityBarometerVisibilityWind DirectionWind SpeedGust SpeedPrecipitationEventsConditions
12:35 AM42.8 °F26.6 °F53 %30.02 in10.0 miCalmClear
12:55 AM42.8 °F26.6 °F53 %30.02 in10.0 miCalmClear
1:15 AM41.0 °F26.6 °F57 %30.02 in10.0 miCalmClear
1:35 AM41.0 °F26.6 °F57 %30.02 in10.0 miCalmClear
1:55 AM41.0 °F26.6 °F57 %30.02 in10.0 miSouth (180°)3.5 mphClear
2:15 AM42.8 °F26.6 °F53 %30.02 in10.0 miCalmClear
2:35 AM41.0 °F26.6 °F57 %30.02 in10.0 miESE (120°)3.5 mphClear
2:55 AM39.2 °F26.6 °F61 %30.02 in10.0 miSE (140°)6.9 mphClear
3:15 AM41.0 °F26.6 °F57 %30.02 in10.0 miCalmClear
3:35 AM41.0 °F28.4 °F61 %30.01 in10.0 miCalmClear
3:55 AM41.0 °F28.4 °F61 %30.01 in10.0 miCalmClear
4:15 AM39.2 °F26.6 °F61 %30.01 in10.0 miCalmClear
4:35 AM39.2 °F28.4 °F65 %30.00 in10.0 miCalmClear
4:55 AM37.4 °F26.6 °F65 %30.00 in10.0 miCalmClear
5:15 AM39.2 °F26.6 °F61 %30.00 in10.0 miCalmClear
5:35 AM39.2 °F26.6 °F61 %30.01 in10.0 miCalmClear
5:55 AM37.4 °F26.6 °F65 %30.01 in10.0 miCalmClear
6:15 AM37.4 °F26.6 °F65 %30.02 in10.0 miCalmClear
6:35 AM37.4 °F26.6 °F65 %30.02 in10.0 miCalmClear
6:55 AM39.2 °F26.6 °F61 %30.02 in10.0 miCalmClear
7:15 AM37.4 °F26.6 °F65 %30.02 in10.0 miEast (90°)3.5 mphClear
7:35 AM37.4 °F26.6 °F65 %30.03 in10.0 miCalmClear
7:55 AM37.4 °F26.6 °F65 %30.03 in10.0 miCalmClear
8:15 AM37.4 °F26.6 °F65 %30.03 in10.0 miCalmClear
8:35 AM39.2 °F26.6 °F61 %30.04 in10.0 miNorth (10°)3.5 mphClear
8:55 AM41.0 °F26.6 °F57 %30.04 in10.0 miCalmClear
9:15 AM42.8 °F26.6 °F53 %30.04 in10.0 miCalmScattered Clouds
9:35 AM44.6 °F26.6 °F49 %30.04 in10.0 miCalmScattered Clouds
9:55 AM44.6 °F26.6 °F49 %30.03 in10.0 miSouth (190°)4.6 mphClear
10:15 AM44.6 °F26.6 °F49 %30.04 in10.0 miSW (230°)5.8 mphPartly Cloudy
10:35 AM44.6 °F26.6 °F49 %30.04 in10.0 miSW (220°)4.6 mphScattered Clouds
10:55 AM44.6 °F26.6 °F49 %30.05 in10.0 miCalmPartly Cloudy
11:15 AM46.4 °F26.6 °F46 %30.05 in10.0 miCalmClear
11:35 AM46.4 °F26.6 °F46 %30.04 in10.0 miCalmClear
11:55 AM46.4 °F26.6 °F46 %30.04 in10.0 miCalmClear
12:15 PM48.2 °F26.6 °F43 %30.03 in10.0 miNorth (10°)3.5 mphClear
12:35 PM50.0 °F26.6 °F40 %30.02 in10.0 miNNW (340°)6.9 mphClear
12:55 PM51.8 °F26.6 °F38 %30.00 in10.0 miNNE (30°)3.5 mphClear
1:15 PM53.6 °F24.8 °F33 %29.99 in10.0 miNorth (350°)4.6 mphClear
1:35 PM53.6 °F23.0 °F30 %29.98 in10.0 miCalmClear
1:55 PM53.6 °F23.0 °F30 %29.97 in10.0 miNW (310°)5.8 mphClear
2:15 PM53.6 °F24.8 °F33 %29.97 in10.0 miNNW (330°)5.8 mphClear
2:35 PM53.6 °F21.2 °F28 %29.96 in10.0 miNorth (350°)4.6 mphPartly Cloudy
2:55 PM55.4 °F21.2 °F26 %29.96 in10.0 miNNW (330°)9.2 mphClear
3:15 PM55.4 °F19.4 °F25 %29.95 in10.0 miNorth (350°)6.9 mphPartly Cloudy
3:35 PM57.2 °F17.6 °F21 %29.95 in10.0 miNE (40°)5.8 mphPartly Cloudy
3:55 PM57.2 °F15.8 °F20 %29.95 in10.0 miNNE (30°)4.6 mphScattered Clouds
4:15 PM59.0 °F14.0 °F17 %29.94 in10.0 miNNE (30°)5.8 mphOvercast
4:35 PM59.0 °F17.6 °F20 %29.94 in10.0 miSSW (200°)8.1 mphMostly Cloudy
4:55 PM57.2 °F17.6 °F21 %29.95 in10.0 miSW (220°)5.8 mphPartly Cloudy
5:15 PM57.2 °F17.6 °F21 %29.95 in10.0 miWSW (250°)4.6 mphScattered Clouds
5:35 PM57.2 °F17.6 °F21 %29.95 in10.0 miCalmMostly Cloudy
5:55 PM55.4 °F17.6 °F23 %29.95 in10.0 miSSW (200°)4.6 mphPartly Cloudy
6:15 PM55.4 °F17.6 °F23 %29.95 in10.0 miSSW (210°)4.6 mphClear
6:35 PM55.4 °F17.6 °F23 %29.96 in10.0 miCalmClear
6:55 PM55.4 °F17.6 °F23 %29.97 in10.0 miNNW (340°)4.6 mphScattered Clouds
7:15 PM53.6 °F23.0 °F30 %29.98 in10.0 miNorth (360°)8.1 mphOvercast
7:35 PM53.6 °F23.0 °F30 %29.98 in10.0 miNorth (350°)8.1 mphMostly Cloudy
7:55 PM53.6 °F24.8 °F33 %29.98 in10.0 miNorth (350°)15.0 mph19.6 mphMostly Cloudy
8:15 PM51.8 °F24.8 °F35 %29.99 in10.0 miNorth (360°)6.9 mphPartly Cloudy
8:35 PM51.8 °F23.0 °F33 %29.98 in10.0 miNNE (20°)11.5 mphScattered Clouds
8:55 PM51.8 °F23.0 °F33 %29.99 in10.0 miNNE (30°)10.4 mphPartly Cloudy
9:15 PM50.0 °F23.0 °F35 %30.00 in10.0 miNE (50°)8.1 mphPartly Cloudy
9:35 PM50.0 °F24.8 °F37 %30.00 in10.0 miNNE (20°)4.6 mphMostly Cloudy
9:55 PM50.0 °F24.8 °F37 %30.00 in10.0 miCalmOvercast
10:15 PM48.2 °F24.8 °F40 %30.00 in10.0 miCalmMostly Cloudy
10:35 PM48.2 °F26.6 °F43 %30.01 in10.0 miCalmMostly Cloudy
10:55 PM48.2 °F26.6 °F43 %30.01 in10.0 miCalmMostly Cloudy
11:15 PM50.0 °F28.4 °F43 %30.01 in10.0 miNorth (350°)6.9 mphMostly Cloudy
11:35 PM48.2 °F28.4 °F46 %30.01 in10.0 miNorth (360°)5.8 mphMostly Cloudy
11:55 PM48.2 °F26.6 °F43 %30.02 in10.0 miNorth (10°)3.5 mphPartly Cloudy
Hourly data recorded from KIFP, located miles away from Laughlin, Nevada







STORIES FROM OUR PARTNERS